Weather History for KCMX - July, 2013

Change the Weather History Date:

Friday, July 19, 2013

  Actual Average Record
Temperature  
Mean Temperature 70 °F -  
Max Temperature 75 °F 76 °F 98 °F (1977)
Min Temperature 64 °F 57 °F 45 °F (2000)
Cooling Degree Days 4    
Growing Degree Days 20 (Base 50)    
Moisture  
Dew Point 63 °F    
Average Humidity 85    
Maximum Humidity 100    
Minimum Humidity 55    
Precipitation  
Precipitation 0.91 in - - ()
Sea Level Pressure  
Sea Level Pressure 29.65 in    
Wind  
Wind Speed 9 mph (West)    
Max Wind Speed 21 mph    
Max Gust Speed 31 mph    
Visibility 8 miles    
Events Rain , Thunderstorm    
Averages and records for this station are not official NWS values.
T = Trace of Precipitation, MM = Missing Value Source: NWS Daily Summary

Daily Weather History Graph

Daily Weather History Graph

Search for Another Location

Airport or City:

Trip Planner

Search our weather history database for the weather conditions in past years. The results will help you decide how hot, cold, wet, or windy it might be!

Date:

Astronomy

Jul. 19, 2013 Rise Set
Actual Time 6:17 AM EDT 9:42 PM EDT
Civil Twilight 5:40 AM EDT 10:19 PM EDT
Nautical Twilight 4:50 AM EDT 11:08 PM EDT
Astronomical Twilight 3:45 AM EDT 12:12 AM EDT
Moon 6:43 PM EDT (7/19) 3:00 AM EDT (7/19)
Length of Visible Light 16h 39m
Length of Day
15h 24m
Waxing Gibbous, 86% of the Moon is Illuminated
Jul 19
Waxing Gibbous
Jul 22
Full
Jul 29
Last Quarter
Aug 6
New
Aug 14
First Quarter

Hourly Weather History & Observations

Time (EDT) Temp. Dew Point Humidity Pressure Visibility Wind Dir Wind Speed Gust Speed Precip Events Conditions
12:03 AM 66.2 °F 64.4 °F 94% 29.70 in 2.0 mi South 5.8 mph - 0.00 in Rain Light Rain
12:06 AM 66.2 °F 64.4 °F 94% 29.70 in 7.0 mi South 8.1 mph - 0.00 in Rain Light Rain
12:19 AM 66.2 °F 64.4 °F 94% 29.69 in 3.0 mi South 10.4 mph - 0.00 in   Mostly Cloudy
12:53 AM 66.9 °F 66.0 °F 97% 29.65 in 9.0 mi South 6.9 mph - 0.00 in   Overcast
1:30 AM 66.2 °F 66.2 °F 100% 29.68 in 10.0 mi North 8.1 mph - N/A   Overcast
1:40 AM 66.2 °F 64.4 °F 94% 29.66 in 10.0 mi SSE 9.2 mph - N/A Thunderstorm Overcast
1:53 AM 66.9 °F 64.9 °F 93% 29.66 in 10.0 mi NW 8.1 mph - N/A Thunderstorm Overcast
2:14 AM 68.0 °F 64.4 °F 88% 29.67 in 10.0 mi Calm Calm - N/A Thunderstorm Overcast
2:30 AM 66.2 °F 64.4 °F 94% 29.66 in 10.0 mi Calm Calm - 0.00 in Rain Light Rain
2:53 AM 66.9 °F 66.0 °F 97% 29.64 in 9.0 mi Calm Calm - 0.02 in Rain , Thunderstorm Light Rain
3:03 AM 66.2 °F 64.4 °F 94% 29.67 in 1.8 mi North 3.5 mph - 0.08 in Rain , Thunderstorm Heavy Thunderstorms and Rain
3:12 AM 66.2 °F 64.4 °F 94% 29.70 in 1.2 mi NW 9.2 mph - 0.21 in Rain , Thunderstorm Heavy Thunderstorms and Rain
3:23 AM 66.2 °F 66.2 °F 100% 29.68 in 0.8 mi Variable 3.5 mph - 0.44 in Rain , Thunderstorm Heavy Thunderstorms and Rain
3:34 AM 66.2 °F 64.4 °F 94% 29.65 in 1.0 mi West 4.6 mph - 0.64 in Rain , Thunderstorm Heavy Thunderstorms and Rain
3:39 AM 66.2 °F 66.2 °F 100% 29.63 in 2.0 mi WNW 4.6 mph - 0.67 in Rain , Thunderstorm Thunderstorms and Rain
3:47 AM 66.2 °F 64.4 °F 94% 29.62 in 1.2 mi West 5.8 mph - 0.76 in Rain , Thunderstorm Heavy Rain
3:53 AM 66.9 °F 66.0 °F 97% 29.59 in 0.8 mi WSW 4.6 mph - 0.87 in Rain , Thunderstorm Heavy Thunderstorms and Rain
4:00 AM 68.0 °F 64.4 °F 88% 29.60 in 2.0 mi South 5.8 mph - 0.00 in Rain , Thunderstorm Light Thunderstorms and Rain
4:07 AM 66.2 °F 66.2 °F 100% 29.58 in 9.0 mi South 6.9 mph - 0.01 in Rain , Thunderstorm Light Thunderstorms and Rain
4:25 AM 66.2 °F 66.2 °F 100% 29.60 in 1.5 mi SSW 5.8 mph - 0.02 in Rain Light Rain
4:29 AM 66.2 °F 66.2 °F 100% 29.60 in 0.8 mi South 8.1 mph - 0.02 in Rain Light Rain
4:37 AM 66.2 °F 66.2 °F 100% 29.59 in 2.5 mi South 6.9 mph - 0.02 in   Overcast
4:44 AM 66.2 °F 66.2 °F 100% 29.59 in 9.0 mi SSW 8.1 mph - 0.02 in   Overcast
4:53 AM 66.9 °F 66.0 °F 97% 29.57 in 9.0 mi SSW 8.1 mph - 0.02 in   Overcast
5:53 AM 66.9 °F 66.0 °F 97% 29.57 in 10.0 mi WSW 5.8 mph - N/A   Overcast
6:15 AM 68.0 °F 66.2 °F 94% 29.57 in 10.0 mi West 11.5 mph - N/A   Scattered Clouds
6:53 AM 69.1 °F 66.9 °F 93% 29.56 in 10.0 mi West 18.4 mph 25.3 mph N/A   Clear
7:53 AM 70.0 °F 66.9 °F 90% 29.57 in 10.0 mi West 13.8 mph - N/A   Clear
8:41 AM 69.8 °F 66.2 °F 88% 29.61 in 10.0 mi West 18.4 mph 26.5 mph N/A   Mostly Cloudy
8:49 AM 69.8 °F 66.2 °F 88% 29.61 in 10.0 mi West 16.1 mph 26.5 mph N/A   Mostly Cloudy
8:53 AM 70.0 °F 66.0 °F 87% 29.60 in 10.0 mi West 16.1 mph - N/A   Overcast
9:07 AM 69.8 °F 66.2 °F 88% 29.62 in 10.0 mi West 15.0 mph - N/A   Overcast
9:53 AM 72.0 °F 66.9 °F 84% 29.62 in 10.0 mi West 19.6 mph 24.2 mph N/A   Mostly Cloudy
10:53 AM 71.1 °F 66.0 °F 84% 29.62 in 10.0 mi WNW 19.6 mph 25.3 mph N/A   Scattered Clouds
11:53 AM 70.0 °F 62.1 °F 76% 29.65 in 10.0 mi NW 19.6 mph 31.1 mph N/A   Clear
12:53 PM 70.0 °F 62.1 °F 76% 29.68 in 10.0 mi WNW 16.1 mph 20.7 mph N/A   Clear
1:53 PM 72.0 °F 61.0 °F 68% 29.70 in 10.0 mi WNW 18.4 mph - N/A   Clear
2:53 PM 73.9 °F 60.1 °F 62% 29.71 in 10.0 mi WNW 16.1 mph 28.8 mph N/A   Clear
3:53 PM 73.9 °F 60.1 °F 62% 29.71 in 10.0 mi WNW 19.6 mph 26.5 mph N/A   Clear
4:53 PM 75.0 °F 59.0 °F 57% 29.71 in 10.0 mi West 17.3 mph 28.8 mph N/A   Clear
5:53 PM 75.0 °F 57.9 °F 55% 29.73 in 10.0 mi West 20.7 mph 29.9 mph N/A   Clear
6:53 PM 73.9 °F 57.0 °F 55% 29.72 in 10.0 mi West 20.7 mph 27.6 mph N/A   Clear
7:53 PM 72.0 °F 55.0 °F 55% 29.72 in 10.0 mi West 12.7 mph - N/A   Clear
8:53 PM 69.1 °F 53.1 °F 57% 29.73 in 10.0 mi West 10.4 mph - N/A   Clear
9:53 PM 64.9 °F 53.1 °F 65% 29.73 in 10.0 mi West 6.9 mph - N/A   Partly Cloudy
10:53 PM 66.0 °F 53.1 °F 63% 29.72 in 10.0 mi West 8.1 mph - N/A   Overcast
11:53 PM 66.9 °F 53.1 °F 61% 29.73 in 10.0 mi West 11.5 mph - N/A   Overcast